Wind_Speed
31 32 32 32 31 31 31 31 31 31 31 31 32 31 31 31 31 31 30 32 32 33 33 34 35 35 35 35 35 36 36 37 37 37 37 37 37 38
31 30 31 31 30 30 30 30 30 30 31 31 31 31 32 32 31 31 30 30 31 32 32 32 32 33 34 33 33 34 35 36 35 36 36 36 37 37
28 28 29 29 29 30 30 29 29 29 29 30 30 30 30 30 30 29 29 30 30 30 30 31 31 31 32 33 33 33 34 34 34 34 34 34 35 36
25 26 26 27 28 28 28 28 28 28 28 28 29 29 29 29 28 27 28 28 27 28 28 28 28 29 29 29 31 31 32 32 32 32 33 33 34 35
23 23 23 24 25 26 26 26 26 25 25 26 26 27 27 27 27 26 27 26 26 26 25 25 25 26 27 28 29 28 29 30 31 32 32 32 32 32
20 20 20 21 21 22 22 22 22 22 22 23 23 24 24 24 24 24 24 24 24 24 23 23 23 24 25 25 26 27 28 27 28 29 30 30 30 31
16 16 17 17 18 19 19 18 19 19 19 19 20 20 20 20 20 21 21 20 21 21 21 21 22 23 24 24 24 24 25 26 27 28 28 29 29 30
13 13 13 13 13 14 14 15 15 16 17 16 16 16 17 17 17 18 17 18 19 19 20 20 21 21 22 22 22 23 23 24 25 26 26 27 27 28
9 9 9 9 9 10 10 11 11 11 12 11 11 12 13 13 14 14 15 15 15 16 17 17 18 19 19 20 21 21 22 22 23 23 23 24 25 26
6 5 5 6 6 6 7 7 8 8 8 8 9 9 9 10 11 12 12 12 12 13 14 15 16 17 18 19 19 20 20 21 21 21 23 23 24 25
3 3 3 3 4 4 5 5 5 5 5 5 6 6 7 7 8 8 9 9 10 11 12 13 14 15 15 16 16 16 17 17 19 20 22 23 23 24
1 2 2 3 3 4 4 3 3 2 2 3 3 4 4 5 5 5 6 6 7 8 10 11 12 12 13 13 14 15 16 17 19 20 21 22 23 24
3 4 4 5 5 6 6 5 4 3 2 1 1 1 2 2 2 3 4 5 6 7 8 9 9 10 12 13 14 15 17 18 19 20 21 22 23 24
7 7 7 8 8 8 8 7 6 5 4 4 3 3 3 3 3 4 3 4 5 6 6 8 9 11 12 13 15 16 18 19 20 21 22 23 24 25
9 10 10 10 10 9 9 8 8 8 7 6 6 6 5 5 5 5 5 5 6 7 7 8 10 11 13 15 16 18 19 20 22 23 24 25 26 27
12 12 12 12 11 10 10 10 10 9 9 8 8 8 8 8 8 7 7 7 7 8 9 10 11 12 14 16 18 19 20 22 23 24 25 26 27 28
14 14 14 14 13 13 13 12 12 11 11 11 11 10 10 10 9 9 9 9 9 10 11 12 12 14 15 16 18 20 22 23 25 26 26 27 28 29
15 15 14 13 13 13 13 13 13 13 13 12 11 11 11 10 10 10 10 10 11 12 13 14 15 16 17 18 20 22 23 24 26 27 28 28 29 30
15 14 14 14 14 14 14 13 13 12 12 12 11 11 11 11 11 11 12 12 13 14 15 16 17 18 19 21 22 24 25 26 27 28 30 31 32 32
15 14 14 14 14 13 13 12 12 11 10 10 11 11 11 11 12 12 13 14 14 15 16 17 19 20 21 22 24 26 28 29 29 31 32 33 33 34
14 14 14 13 13 12 12 11 11 11 11 11 11 11 11 12 13 14 14 15 16 17 18 19 20 22 23 25 26 27 29 31 33 34 35 36 36 36
12 12 12 12 11 11 11 11 11 11 11 11 12 12 12 13 14 15 16 17 19 20 21 22 23 24 26 27 29 30 31 33 35 36 37 39 39 39
12 11 10 10 10 10 10 10 10 11 11 12 12 13 14 14 15 17 18 19 21 22 23 24 25 27 29 30 32 33 34 36 37 38 39 40 40 40
Wind_Direction
265 265 264 264 264 263 262 261 261 261 262 262 261 261 261 263 264 265 265 264 263 265 265 265 266 266 265 267 268 268 268 269 270 272 274 275 275 277
265 264 263 262 262 262 262 262 261 261 261 261 260 260 261 262 264 264 265 265 265 266 267 267 268 268 268 270 269 268 270 271 273 275 277 277 278 278
264 263 263 261 261 261 261 262 261 261 261 261 260 261 263 264 264 265 265 265 266 267 268 269 270 271 271 272 271 272 273 275 276 277 278 278 278 279
265 264 263 261 260 260 261 261 262 262 262 262 261 262 263 264 264 265 265 266 268 269 271 272 272 274 276 276 276 276 277 278 278 280 280 281 280 280
266 264 262 260 260 260 259 260 262 262 262 262 261 262 262 263 263 263 266 268 270 272 275 274 275 276 278 279 278 280 281 281 281 283 283 282 281 281
268 264 263 261 260 260 259 260 261 261 261 261 261 262 262 263 262 261 264 267 269 272 275 276 277 278 279 281 282 283 285 286 285 284 284 282 283 283
268 264 261 260 259 259 258 258 258 258 259 259 260 260 261 261 260 262 265 267 271 274 276 277 279 280 280 283 286 288 288 287 286 285 284 283 285 287
269 264 260 257 256 255 254 253 254 255 254 256 256 257 259 261 262 263 266 268 271 275 277 278 280 283 284 286 288 287 288 289 289 288 287 287 287 289
269 262 258 253 249 251 250 247 246 247 251 252 256 260 264 264 261 262 265 268 271 277 279 280 284 287 288 290 291 290 290 290 290 290 289 288 289 291
272 264 256 248 243 236 237 243 246 248 248 250 253 258 263 265 266 267 267 271 277 282 283 285 289 291 292 295 296 294 294 294 294 295 295 294 294 294
259 240 231 218 215 213 220 231 234 231 239 247 256 261 266 269 273 273 274 280 287 288 290 292 295 298 298 299 301 302 303 304 303 302 300 298 298 297
185 178 175 169 156 161 167 166 177 198 234 241 251 266 277 281 278 277 285 291 294 295 297 300 303 306 305 306 310 311 311 310 309 306 304 302 301 302
106 111 121 123 124 126 122 118 116 110 103 85 43 335 327 316 312 314 312 308 307 308 312 314 316 319 321 320 319 319 318 316 314 312 309 307 306 305
102 104 107 110 112 112 109 104 100 91 83 71 59 50 39 33 25 14 3 355 351 348 344 339 337 334 331 328 324 321 320 318 316 313 311 309 307 305
102 103 106 104 104 104 100 94 87 83 80 77 68 59 56 56 52 42 32 25 18 6 355 345 340 338 334 331 328 326 324 322 319 316 314 312 309 307
101 102 102 103 100 94 91 87 83 79 77 73 69 65 63 58 53 46 37 28 18 6 355 347 341 339 336 334 332 330 327 325 323 321 319 316 314 311
102 102 101 97 93 88 87 87 82 77 75 74 72 69 63 56 48 38 30 22 12 2 354 350 347 342 338 334 332 331 330 328 326 325 322 320 317 314
100 100 98 95 93 90 86 82 78 75 73 72 70 64 57 49 41 31 24 15 8 2 356 350 345 340 337 335 333 331 330 327 326 325 324 321 319 317
99 98 96 94 90 86 83 80 77 74 71 68 62 55 48 40 33 25 18 10 3 358 354 350 346 343 340 337 336 334 331 329 327 326 324 322 320 318
96 94 93 90 86 83 80 77 74 71 65 58 48 41 37 30 23 16 11 6 360 355 352 349 346 344 341 338 336 333 331 329 327 327 326 324 322 319
92 90 89 86 82 79 76 73 69 62 55 48 40 35 30 24 17 12 7 2 358 354 350 346 343 341 339 336 334 333 330 328 327 327 326 325 323 321
91 88 84 80 75 72 71 66 58 50 43 37 32 28 23 16 10 5 0 356 354 351 348 345 342 339 336 335 334 332 330 328 326 325 324 324 323 322
88 85 79 73 70 65 61 53 45 38 32 26 21 17 13 8 4 0 356 353 350 349 346 344 341 338 336 334 333 332 331 330 328 327 326 325 323 322
Height
5780 5780 5781 5782 5782 5783 5784 5785 5787 5788 5788 5789 5790 5790 5791 5792 5792 5792 5793 5793 5793 5793 5794 5794 5795 5795 5795 5794 5794 5794 5794 5793 5793 5792 5791 5790 5789 5787
5771 5771 5772 5773 5774 5775 5776 5777 5778 5780 5780 5782 5782 5783 5784 5784 5785 5785 5785 5786 5786 5786 5786 5787 5787 5787 5787 5786 5786 5786 5785 5784 5784 5783 5782 5781 5780 5778
5762 5763 5764 5765 5766 5768 5769 5770 5771 5772 5773 5774 5775 5776 5776 5777 5778 5778 5778 5779 5779 5779 5779 5779 5779 5779 5779 5778 5778 5778 5777 5777 5775 5774 5773 5772 5771 5769
5755 5755 5757 5758 5759 5760 5761 5763 5764 5765 5766 5767 5768 5769 5769 5770 5771 5771 5772 5772 5772 5772 5772 5772 5772 5772 5772 5771 5771 5770 5769 5768 5768 5766 5765 5764 5762 5760
5748 5749 5750 5751 5752 5753 5754 5756 5757 5758 5759 5760 5761 5762 5762 5763 5764 5765 5765 5766 5766 5766 5766 5766 5766 5765 5765 5764 5764 5763 5762 5761 5760 5758 5756 5755 5753 5752
5741 5742 5743 5744 5746 5747 5748 5750 5751 5752 5753 5754 5755 5756 5756 5757 5758 5759 5760 5760 5761 5761 5761 5760 5760 5759 5759 5758 5757 5756 5754 5753 5752 5751 5749 5747 5745 5744
5736 5737 5738 5739 5740 5742 5743 5744 5746 5747 5748 5749 5750 5750 5751 5752 5753 5753 5754 5755 5755 5755 5755 5755 5754 5754 5753 5752 5751 5749 5748 5747 5746 5744 5742 5740 5738 5736
5732 5732 5733 5734 5735 5737 5738 5740 5741 5742 5743 5744 5745 5746 5747 5748 5748 5749 5749 5750 5750 5751 5750 5750 5749 5748 5748 5747 5745 5744 5743 5741 5739 5738 5736 5734 5732 5729
5728 5729 5730 5731 5732 5733 5735 5736 5737 5739 5740 5741 5742 5742 5743 5744 5744 5744 5745 5745 5746 5746 5746 5745 5745 5744 5742 5741 5740 5738 5737 5735 5733 5731 5730 5728 5726 5723
5726 5727 5728 5729 5730 5731 5732 5734 5735 5736 5737 5738 5739 5740 5741 5741 5741 5741 5741 5742 5742 5742 5742 5742 5740 5739 5738 5736 5735 5733 5732 5730 5728 5726 5724 5722 5720 5717
5725 5726 5727 5728 5728 5730 5731 5732 5733 5734 5735 5736 5737 5738 5738 5739 5739 5739 5739 5739 5739 5739 5738 5738 5737 5735 5734 5732 5731 5729 5727 5725 5723 5720 5718 5716 5713 5711
5725 5726 5726 5727 5728 5729 5730 5731 5733 5734 5735 5735 5736 5737 5737 5737 5737 5737 5737 5737 5736 5736 5735 5734 5733 5732 5730 5729 5727 5724 5722 5720 5718 5715 5713 5710 5707 5704
5726 5727 5727 5728 5729 5730 5731 5732 5733 5734 5735 5735 5736 5736 5736 5736 5735 5735 5735 5735 5734 5734 5733 5732 5730 5729 5727 5726 5723 5721 5718 5716 5713 5710 5708 5705 5702 5698
5728 5728 5729 5730 5731 5732 5733 5733 5734 5735 5735 5736 5736 5736 5736 5735 5735 5734 5734 5733 5733 5732 5731 5730 5728 5727 5725 5723 5720 5718 5715 5712 5709 5705 5702 5699 5696 5693
5730 5731 5731 5732 5733 5734 5735 5735 5736 5736 5736 5736 5736 5736 5736 5735 5735 5734 5733 5733 5732 5731 5729 5728 5726 5724 5722 5720 5717 5714 5711 5708 5704 5701 5697 5693 5689 5686
5733 5734 5734 5735 5736 5737 5737 5737 5738 5738 5738 5737 5737 5737 5736 5736 5735 5734 5733 5733 5732 5730 5728 5726 5724 5722 5719 5717 5714 5710 5707 5704 5700 5696 5691 5687 5683 5679
5736 5737 5738 5738 5739 5739 5740 5740 5740 5740 5739 5739 5739 5738 5737 5737 5736 5735 5734 5732 5731 5729 5727 5725 5722 5720 5717 5714 5710 5707 5703 5699 5695 5691 5686 5682 5677 5672
5740 5741 5741 5742 5742 5742 5743 5742 5742 5742 5742 5741 5741 5740 5739 5738 5737 5735 5734 5732 5730 5728 5725 5723 5720 5717 5714 5711 5707 5703 5699 5694 5690 5685 5680 5675 5670 5665
5744 5745 5745 5745 5745 5746 5745 5745 5745 5745 5744 5743 5742 5741 5740 5739 5737 5736 5734 5732 5729 5726 5724 5720 5717 5714 5710 5707 5703 5698 5693 5689 5684 5679 5674 5668 5663 5658
5749 5749 5749 5749 5749 5749 5748 5748 5747 5747 5746 5745 5744 5742 5741 5739 5737 5735 5733 5731 5728 5725 5722 5719 5715 5711 5707 5703 5699 5694 5689 5683 5678 5673 5667 5661 5655 5649
5752 5752 5753 5752 5752 5752 5751 5751 5750 5749 5748 5746 5745 5743 5741 5740 5738 5735 5733 5730 5727 5723 5720 5717 5713 5708 5704 5699 5695 5690 5684 5678 5671 5665 5659 5653 5646 5640
5756 5756 5756 5756 5755 5754 5754 5753 5752 5751 5749 5748 5746 5744 5742 5740 5737 5735 5732 5729 5725 5721 5717 5713 5709 5705 5700 5695 5689 5684 5678 5672 5665 5658 5651 5644 5637 5630
5759 5759 5759 5758 5757 5757 5756 5755 5753 5752 5750 5748 5746 5744 5742 5739 5737 5734 5730 5726 5723 5719 5714 5710 5705 5700 5695 5689 5683 5677 5671 5664 5658 5651 5644 5636 5628 5621